[ hide orbit diagram ]
For accurate long-term ephemerides, please instead use our Horizons system.This orbit viewer was implemented using two-body methods, and hence should not be used for determining accurate long-term trajectories (over several years or decades) or planetary encounter circumstances.
Orbital Elements at Epoch 2454070.5 (2006-Dec-01.0) TDB
Reference: JPL 38 (heliocentric ecliptic J2000)
Element | Value | Uncertainty (1-sigma) | Units |
e | .3751671318791611 | 4.2332e-07 | |
a | 6.448066120811776 | 1.2375e-06 | au |
q | 4.028963648099634 | 3.465e-06 | au |
i | 3.275502872747119 | 1.1234e-05 | deg |
node | 224.3005801957745 | 0.00029097 | deg |
peri | 90.36361321564132 | 0.0003934 | deg |
M | 28.72658201488539 | 0.00011444 | deg |
tp | 2453593.273991170351 (2005-Aug-10.77399117) | 0.0017702 | TDB |
period | 5980.570994824602 16.37 | 0.0017217 4.714e-06 | d yr |
n | .0601949212393821 | 1.7329e-08 | deg/d |
Q | 8.867168593523919 | 1.7018e-06 | au |
|
| | Orbit Determination Parameters
Additional Information
|
[ show covariance matrix ]
[ show close-approach data ]
Alternate Designations
Perihelion Year (est.) | New-Style Desig | Roman Numeral | Year/ Letter | 2022.0 | 395P/2020 H1 | | |
2005.6 | 395P/2005 JD108 | | |
|
|